Home   Weather   Huntsville   Past weeks

Flag for USA Past Weather in Huntsville, Alabama, USA — Yesterday and Last 2 Weeks

Now
69 °F

Mostly cloudy.


Feels Like: 69 °F
Forecast: 56 / 81 °F
Wind: 9 mph from North

Location: Huntsville International / Jones Field

Current Time: Sep 27, 2016 at 12:28:58 AM

Latest Report: Sep 26, 2016 at 11:53 PM


Visibility: 10 mi

Pressure: 30.02 "Hg

Humidity: 79%

Dew Point: 62 °F

Location of HuntsvilleLocation

Past Weather in Huntsville — Graph

°F

Huntsville Temperature Yesterday

Maximum temperature yesterday: 90 °F (at 1:53 PM)
Minimum temperature yesterday: 71 °F (at 10:53 PM)
Average temperature yesterday: 80 °F

High & Low Weather Summary for the Past Weeks

 TemperatureHumidityPressure
High99 °F (Sep 25, 2:53 PM)94% (Sep 17, 10:53 PM)30.15 "Hg (Sep 17, 10:53 PM)
Low62 °F (Sep 12, 5:53 AM)23% (Sep 25, 2:53 PM)29.89 "Hg (Sep 18, 3:53 PM)
Average80 °F62%30.03 "Hg
* Reported Sep 11 10:53 PM — Sep 26 10:53 PM, Huntsville, Weather by CustomWeather, © 2016

Note: Actual official high and low records may vary slightly from our data, if they occured in-between our weather recording intervals... More about our weather records

Advertising

Huntsville Weather History for the Previous 24 Hours

Scroll right to see more
 ConditionsComfort  
Time TempWeatherWind HumidityBarometerVisibility
10:53 PM
Mon, Sep 26
71 °FPartly cloudy.12 mph76%30.03 "Hg10 mi
9:53 PM73 °FPassing clouds.10 mph74%30.02 "Hg10 mi
8:53 PM75 °FPartly cloudy.8 mph71%30.01 "Hg10 mi
7:53 PM79 °FPassing clouds.10 mph60%29.99 "Hg10 mi
6:53 PM81 °FPartly cloudy.9 mph58%29.97 "Hg10 mi
5:53 PM84 °FScattered clouds.10 mph53%29.97 "Hg10 mi
4:53 PM88 °FScattered clouds.12 mph48%29.95 "Hg10 mi
3:53 PM89 °FScattered clouds.14 mph46%29.96 "Hg10 mi
2:53 PM90 °FScattered clouds.9 mph45%29.96 "Hg10 mi
1:53 PM90 °FScattered clouds.8 mph45%29.98 "Hg10 mi
12:53 PM86 °FPartly sunny.10 mph51%30.01 "Hg10 mi
11:53 AM84 °FBroken clouds.10 mph51%30.04 "Hg10 mi
10:53 AM84 °FPartly sunny.12 mph55%30.04 "Hg10 mi
9:53 AM83 °FBroken clouds.5 mph57%30.04 "Hg10 mi
8:53 AM79 °FScattered clouds.5 mph62%30.01 "Hg10 mi
7:53 AM76 °FPartly sunny.3 mph69%30.02 "Hg10 mi
6:53 AM74 °FPassing clouds.No wind71%30.00 "Hg10 mi
5:53 AM73 °FPassing clouds.6 mph71%29.98 "Hg10 mi
4:53 AM75 °FClear.No wind66%29.97 "Hg10 mi
3:53 AM75 °FPassing clouds.No wind66%29.97 "Hg10 mi
2:53 AM78 °FPassing clouds.7 mph60%29.97 "Hg10 mi
1:53 AM77 °FOvercast.No wind64%29.98 "Hg10 mi
12:53 AM77 °FPassing clouds.5 mph62%30.00 "Hg10 mi
Weather by CustomWeather, © 2016

See weather overviewHow to use our weather pages